Copenhagen, Denmark

2:02 AM CEST on July 26, 2017 (GMT +0200)
Kastrup

Weather History for EKCH - December, 2012

Change the Weather History Date:

Saturday, December 8, 2012

  Actual Average Record
Temperature  
Mean Temperature 25 °F -  
Max Temperature 31 °F 38 °F 54 °F (2016)
Min Temperature 19 °F 32 °F 19 °F (1998)
Degree Days  
Heating Degree Days 40    
Moisture  
Dew Point 23 °F    
Average Humidity 84    
Maximum Humidity 100    
Minimum Humidity 65    
Precipitation  
Precipitation 0.00 in - - ()
Sea Level Pressure  
Sea Level Pressure 30.05 in    
Wind  
Wind Speed 7 mph ()    
Max Wind Speed 17 mph    
Max Gust Speed 25 mph    
Visibility 5.5 miles    
Events Fog , Snow    
Averages and records for this station are not official NWS values.
T = Trace of Precipitation, MM = Missing Value Source: Averaged Metar Reports

Daily Weather History Graph

Daily Weather History Graph

Search for Another Location

Airport or City:

Trip Planner

Search our weather history database for the weather conditions in past years. The results will help you decide how hot, cold, wet, or windy it might be!

Date:

Astronomy

Dec. 08, 2012 Rise Set
Actual Time 8:24 AM CET 3:37 PM CET
Civil Twilight 7:38 AM CET 4:23 PM CET
Nautical Twilight 6:50 AM CET 5:11 PM CET
Astronomical Twilight 6:05 AM CET 5:56 PM CET
Moon 1:38 AM CET (12/8) 12:44 PM CET (12/8)
Length of Visible Light 8h 44m
Length of Day
7h 13m
Waning Crescent, 31% of the Moon is Illuminated
Dec 8
Waning Crescent
Dec 13
New
Dec 20
First Quarter
Dec 28
Full
Jan 5
Last Quarter

Hourly Weather History & Observations

Time (CET) Temp. Windchill Dew Point Humidity Pressure Visibility Wind Dir Wind Speed Gust Speed Precip Events Conditions
12:20 AM 28.4 °F 22.2 °F 26.6 °F 93% 29.92 in 1.2 mi West 5.8 mph - N/A   Mostly Cloudy
12:50 AM 28.4 °F 22.2 °F 28.4 °F 100% 29.92 in 1.4 mi West 5.8 mph - N/A   Mostly Cloudy
1:00 AM 28 °F - 27 °F 96% 29.95 in 1 mi West 5.8 mph - -   Mist
1:20 AM 28.4 °F 22.2 °F 28.4 °F 100% 29.95 in 1.4 mi West 5.8 mph - N/A   Mostly Cloudy
1:50 AM 28.4 °F 22.2 °F 28.4 °F 100% 29.95 in 1.6 mi WNW 5.8 mph - N/A   Mostly Cloudy
2:20 AM 30.2 °F 22.6 °F 26.6 °F 86% 29.95 in 1.9 mi NNW 8.1 mph - N/A   Mostly Cloudy
2:50 AM 28.4 °F 16.2 °F 24.8 °F 86% 29.95 in 6.2 mi North 17.3 mph - N/A Snow Light Snow
3:20 AM 28.4 °F 17.0 °F 23.0 °F 80% 29.95 in 6.2 mi North 15.0 mph - N/A Snow Light Snow
3:50 AM 28.4 °F 19.1 °F 24.8 °F 86% 29.95 in 6.2 mi North 10.4 mph - N/A Snow Light Snow
4:00 AM 28 °F - 24 °F 78% 29.98 in 6 mi North 9.2 mph - - Snow Light Snow
4:20 AM 26.6 °F 19.1 °F 24.8 °F 93% 29.98 in 6.2 mi NNW 6.9 mph - N/A Snow Light Snow
4:50 AM 26.6 °F 19.1 °F 23.0 °F 86% 29.98 in 6.2 mi NW 6.9 mph - N/A Snow Light Snow
5:20 AM 26.6 °F 19.1 °F 23.0 °F 86% 29.98 in 6.2 mi NW 6.9 mph - N/A Snow Light Snow
5:50 AM 26.6 °F 19.1 °F 23.0 °F 86% 29.98 in 6.2 mi WNW 6.9 mph - N/A Snow Light Snow
6:20 AM 26.6 °F 18.2 °F 23.0 °F 86% 29.98 in 6.2 mi NW 8.1 mph - N/A Snow Light Snow
6:50 AM 26.6 °F 16.8 °F 21.2 °F 80% 30.01 in 6.2 mi NNW 10.4 mph - N/A   Mostly Cloudy
7:00 AM 27 °F - 21 °F 71% 30.01 in 16 mi NNW 9.2 mph - - Snow Light Snow
7:20 AM 26.6 °F 17.5 °F 21.2 °F 80% 30.01 in 6.2 mi NNW 9.2 mph - N/A   Mostly Cloudy
7:50 AM 26.6 °F 16.8 °F 19.4 °F 74% 30.01 in 6.2 mi NW 10.4 mph - N/A   Mostly Cloudy
8:20 AM 26.6 °F 16.8 °F 17.6 °F 69% 30.04 in 6.2 mi NW 10.4 mph - N/A   Mostly Cloudy
8:50 AM 26.6 °F 17.5 °F 19.4 °F 74% 30.04 in 6.2 mi NW 9.2 mph - N/A   Mostly Cloudy
9:20 AM 24.8 °F 16.1 °F 17.6 °F 74% 30.04 in 6.2 mi NW 8.1 mph - N/A   Mostly Cloudy
9:50 AM 26.6 °F 20.0 °F 19.4 °F 74% 30.04 in 6.2 mi WNW 5.8 mph - N/A   Scattered Clouds
10:00 AM 26 °F - 19 °F 65% 30.06 in 25 mi WNW 5.8 mph - -   Partly Cloudy
10:20 AM 26.6 °F 19.1 °F 19.4 °F 74% 30.04 in 6.2 mi WNW 6.9 mph - N/A   Scattered Clouds
10:50 AM 28.4 °F 18.5 °F 21.2 °F 74% 30.06 in 6.2 mi NW 11.5 mph - N/A   Scattered Clouds
11:20 AM 28.4 °F 19.1 °F 21.2 °F 74% 30.06 in 6.2 mi NW 10.4 mph - N/A   Mostly Cloudy
11:50 AM 30.2 °F 22.6 °F 23.0 °F 75% 30.06 in 6.2 mi NW 8.1 mph - N/A   Mostly Cloudy
12:20 PM 30.2 °F 21.9 °F 23.0 °F 75% 30.06 in 6.2 mi NNW 9.2 mph - N/A   Mostly Cloudy
12:50 PM 30.2 °F 21.9 °F 24.8 °F 80% 30.06 in 6.2 mi NW 9.2 mph - N/A   Scattered Clouds
1:00 PM 30 °F - 24 °F 68% 30.07 in 25 mi NNW 11.5 mph - -   Partly Cloudy
1:20 PM 30.2 °F 20.8 °F 23.0 °F 75% 30.06 in 6.2 mi NW 11.5 mph - N/A   Scattered Clouds
1:50 PM 30.2 °F 20.8 °F 23.0 °F 75% 30.06 in 6.2 mi NNW 11.5 mph - N/A   Mostly Cloudy
2:20 PM 30.2 °F 20.8 °F 23.0 °F 75% 30.06 in 6.2 mi NNW 11.5 mph 25.3 mph N/A   Mostly Cloudy
2:50 PM 30.2 °F 20.2 °F 24.8 °F 80% 30.09 in 6.2 mi NNW 12.7 mph - N/A   Mostly Cloudy
3:20 PM 30.2 °F 20.8 °F 23.0 °F 75% 30.09 in 6.2 mi NNW 11.5 mph - N/A   Scattered Clouds
3:50 PM 30.2 °F 20.8 °F 23.0 °F 75% 30.09 in 6.2 mi NW 11.5 mph - N/A   Scattered Clouds
4:00 PM 29 °F - 25 °F 78% 30.11 in 25 mi NNW 10.4 mph - -   Partly Cloudy
4:20 PM 28.4 °F 19.7 °F 23.0 °F 80% 30.09 in 6.2 mi NW 9.2 mph - N/A   Scattered Clouds
4:50 PM 28.4 °F 20.4 °F 23.0 °F 80% 30.09 in 6.2 mi NW 8.1 mph - N/A   Partly Cloudy
5:20 PM 28.4 °F 21.2 °F 23.0 °F 80% 30.09 in 6.2 mi NW 6.9 mph - N/A   Partly Cloudy
5:50 PM 26.6 °F 19.1 °F 23.0 °F 86% 30.12 in 6.2 mi NW 6.9 mph - N/A   Scattered Clouds
6:20 PM 26.6 °F 19.1 °F 23.0 °F 86% 30.12 in 6.2 mi West 6.9 mph - N/A   Scattered Clouds
6:50 PM 26.6 °F 20.0 °F 24.8 °F 93% 30.12 in 6.2 mi NW 5.8 mph - N/A   Scattered Clouds
7:00 PM 26 °F - 23 °F 82% 30.13 in 25 mi NW 5.8 mph - -   Scattered Clouds
7:20 PM 26.6 °F 19.1 °F 23.0 °F 86% 30.12 in 6.2 mi WNW 6.9 mph - N/A   Scattered Clouds
7:50 PM 23.0 °F 17.0 °F 21.2 °F 93% 30.12 in 6.2 mi WNW 4.6 mph - N/A   Scattered Clouds
8:20 PM 21.2 °F 14.9 °F 21.2 °F 100% 30.12 in 4.3 mi West 4.6 mph - N/A   Unknown
8:50 PM 21.2 °F 16.4 °F 21.2 °F 100% 30.12 in 3.7 mi West 3.5 mph - N/A Fog Fog
9:20 PM 19.4 °F 12.8 °F 17.6 °F 93% 30.12 in 3.7 mi West 4.6 mph - N/A Fog Fog
9:50 PM 21.2 °F - 19.4 °F 93% 30.12 in 3.7 mi Variable 1.2 mph - N/A Fog Fog
10:00 PM 22 °F - 22 °F 100% 30.14 in 4 mi SW 1.2 mph - - Fog Patches of Fog
10:20 PM 21.2 °F - 21.2 °F 100% 30.12 in 3.7 mi West 1.2 mph - N/A Fog Fog
10:50 PM 21.2 °F 16.4 °F 19.4 °F 93% 30.12 in 6.2 mi West 3.5 mph - N/A Fog Shallow Fog
11:20 PM 23.0 °F - 23.0 °F 100% 30.12 in 6.2 mi West 1.2 mph - N/A Fog Shallow Fog
11:50 PM 23.0 °F - 21.2 °F 93% 30.09 in 3.7 mi WSW 2.3 mph - N/A Fog Patches of Fog